Overview Statistics Trail Chart Weather Telemetry Raw packets
 

This is the latest recevied weather packets stored in our database for station/object SQ4IXR-4. If no packets are shown the sender has not sent any weather packets the latest 10 day(s).

<< 13 14 15 16 17 18 19 >>
Time Temp. Humidity Pressure Rain* Wind** Luminosity Snow
1788353377 30.56° C 31% 1019.9 hPa - - - -
1788352567 44.44° C 16% 1019 hPa - - - -
1788351731 34.44° C 28% 1019.7 hPa - - - -
1788350900 32.22° C 32% 1019.8 hPa - - - -
1788350072 28.33° C 38% 1020.2 hPa - - - -
1788349251 27.78° C 38% 1020.3 hPa - - - -
1788348430 30° C 37% 1020.3 hPa - - - -
1788347603 28.89° C 39% 1020.5 hPa - - - -
1788346776 28.33° C 39% 1020.5 hPa - - - -
1788345951 25° C 45% 1020.8 hPa - - - -
1788345127 26.11° C 41% 1020.8 hPa - - - -
1788344304 27.22° C 42% 1020.8 hPa - - - -
1788343481 26.67° C 42% 1021 hPa - - - -
1788342657 30° C 38% 1020.8 hPa - - - -
1788341836 29.44° C 37% 1020.8 hPa - - - -
1788341007 28.33° C 40% 1020.8 hPa - - - -
1788340190 30.56° C 35% 1020.9 hPa - - - -
1788339384 34.44° C 29% 1020.5 hPa - - - -
1788338562 45.56° C 18% 1019.8 hPa - - - -
1788337700 36.11° C 30% 1020.3 hPa - - - -
1788336875 26.67° C 44% 1021.1 hPa - - - -
1788336049 26.11° C 47% 1021 hPa - - - -
1788335236 31.67° C 35% 1020.5 hPa - - - -
1788334406 31.11° C 37% 1020.5 hPa - - - -
1788333589 28.33° C 40% 1020.6 hPa - - - -

* Rain since midnight (hover to see other rain measurements)
** Current wind speed in m/s (hover to see current wind gust speed)